Location: Aurora Center
(43.5271°N, 98.5894°W)
Time: 10:40:42
(UTC-05:00)

A-11 Canister half - Pass Details

Date: 24 July 2024
Orbit: 1515 x 1684 km, 47.2° (Epoch: 12 June)

Event Time Altitude Azimuth Distance (km) Brightness Sun altitude
Rises 16:03:44 0° 294° (WNW) 4,910 12.0 51.8°
Reaches altitude 10° 16:06:53 10° 292° (WNW) 3,934 11.7 51.3°
Maximum altitude 16:16:57 71° 211° (SSW) 1,761 10.7 49.6°
Drops below altitude 10° 16:26:59 10° 130° (SE) 3,922 11.0 48.0°
Sets 16:30:08 0° 128° (SE) 4,895 11.4 47.4°
